Powrót do katalogu

STARLINK-2494

AktywnyŁącznośćVLEO
NORAD 48487·PAYLOAD·🇺🇸 United States

Wystrzelony May 9, 2021 z Cape Canaveral Space Force Station

Loading…

Następne Przeloty (najbliższe 24 godziny)

TLE

ŚwieżeSource: CelesTrak SupGP

Epoka: Sep 15, 2026, 01:01 UTC

1 48487C 21040BM  26258.04284722 -.00031471  00000+0 -10119-2 0  2589
2 48487  53.1606  32.8310 0001127  83.8826 228.0590 15.31722388    14

Śledź STARLINK-2494 w czasie rzeczywistym z AllMySat

Download on the App Store